Gwinn, MI

1:53 AM EDT on April 22, 2018 (GMT -0400)
Sawyer International

Weather History for KSAW - October, 2013

Change the Weather History Date:

Thursday, October 3, 2013

  Actual Average (KESC) Record (KESC)
Temperature  
Mean Temperature 54 °F -  
Max Temperature 59 °F 58 °F 72 °F (1951)
Min Temperature 50 °F 43 °F 28 °F (1996)
Degree Days  
Heating Degree Days 10    
Growing Degree Days 4 (Base 50)    
Moisture  
Dew Point 46 °F    
Average Humidity 77    
Maximum Humidity 94    
Minimum Humidity 64    
Precipitation  
Precipitation 0.00 in - - ()
Sea Level Pressure  
Sea Level Pressure 30.01 in    
Wind  
Wind Speed 2 mph (NE)    
Max Wind Speed 14 mph    
Max Gust Speed -    
Visibility 10 miles    
Events Rain    
Averages and records for this station are not official NWS values.
T = Trace of Precipitation, MM = Missing Value Source: NWS Daily Summary

Daily Weather History Graph

Daily Weather History Graph

Search for Another Location

Airport or City:

Astronomy

Oct. 03, 2013 Rise Set
Actual Time 7:51 AM EDT 7:25 PM EDT
Civil Twilight 7:21 AM EDT 7:55 PM EDT
Nautical Twilight 6:46 AM EDT 8:29 PM EDT
Astronomical Twilight 6:10 AM EDT 9:05 PM EDT
Moon 6:21 AM EDT (10/3) 6:34 PM EDT (10/3)
Length of Visible Light 12h 33m
Length of Day
11h 34m
Waning Crescent, 2% of the Moon is Illuminated
Oct 3
Waning Crescent
Oct 4
New
Oct 11
First Quarter
Oct 18
Full
Oct 26
Last Quarter

Hourly Weather History & Observations

Time (EDT) Temp. Dew Point Humidity Pressure Visibility Wind Dir Wind Speed Gust Speed Precip Events Conditions
12:16 AM 50.9 °F 41.0 °F 69% 30.05 in 10.0 mi Calm Calm - N/A   Overcast
12:37 AM 52.7 °F 41.5 °F 66% 30.05 in 10.0 mi Calm Calm - N/A   Overcast
12:57 AM 52.5 °F 41.5 °F 66% 30.04 in 10.0 mi Calm Calm - N/A   Overcast
1:16 AM 53.4 °F 42.8 °F 67% 30.03 in 10.0 mi Calm Calm - N/A   Overcast
1:37 AM 53.8 °F 42.3 °F 65% 30.03 in 10.0 mi SE 3.5 mph - N/A   Overcast
1:56 AM 54.0 °F 42.8 °F 66% 30.02 in 10.0 mi Calm Calm - N/A   Overcast
2:17 AM 53.8 °F 42.8 °F 66% 30.02 in 10.0 mi Calm Calm - N/A   Overcast
2:37 AM 54.0 °F 42.8 °F 66% 30.02 in 10.0 mi Calm Calm - N/A   Overcast
2:56 AM 53.8 °F 42.8 °F 66% 30.03 in 10.0 mi Calm Calm - N/A   Overcast
3:17 AM 51.8 °F 42.8 °F 71% 30.03 in 10.0 mi Calm Calm - N/A   Overcast
3:36 AM 51.8 °F 42.8 °F 71% 30.02 in 10.0 mi Calm Calm - N/A   Overcast
3:57 AM 51.8 °F 42.8 °F 71% 30.02 in 10.0 mi Calm Calm - N/A   Overcast
4:16 AM 52.0 °F 42.8 °F 71% 30.03 in 10.0 mi Calm Calm - N/A   Overcast
4:37 AM 52.7 °F 42.6 °F 69% 30.01 in 10.0 mi Calm Calm - N/A   Overcast
4:57 AM 54.5 °F 42.6 °F 64% 30.00 in 10.0 mi Calm Calm - N/A   Overcast
5:16 AM 52.3 °F 43.7 °F 72% 30.02 in 10.0 mi Calm Calm - N/A   Overcast
5:37 AM 52.7 °F 41.9 °F 67% 30.04 in 10.0 mi NNW 3.5 mph - N/A   Overcast
5:57 AM 52.2 °F 42.6 °F 70% 30.03 in 10.0 mi Calm Calm - N/A Rain Light Rain
6:50 AM 51.8 °F 48.2 °F 88% 30.01 in 10.0 mi Calm Calm - N/A Rain Light Rain
7:55 AM 50.0 °F 46.4 °F 87% 29.98 in 10.0 mi ESE 4.6 mph - N/A Rain Rain
8:50 AM 51.8 °F 50.0 °F 94% 30.01 in 10.0 mi Calm Calm - N/A Rain Light Rain
9:55 AM 51.8 °F 48.2 °F 88% 30.02 in 10.0 mi NE 8.1 mph - N/A   Overcast
10:55 AM 51.8 °F 50.0 °F 94% 29.99 in 10.0 mi NE 6.9 mph - N/A   Mostly Cloudy
11:55 AM 53.6 °F 50.0 °F 88% 29.99 in 10.0 mi NE 5.8 mph - N/A   Scattered Clouds
12:50 PM 57.2 °F 48.2 °F 72% 29.98 in 10.0 mi ENE 10.4 mph - N/A   Scattered Clouds
1:55 PM 59.0 °F 48.2 °F 67% 30.00 in 10.0 mi NE 5.8 mph - N/A   Scattered Clouds
2:50 PM 59.0 °F 50.0 °F 72% 29.98 in 10.0 mi NE 6.9 mph - N/A   Scattered Clouds
3:55 PM 57.2 °F 50.0 °F 77% 29.96 in 10.0 mi NNE 13.8 mph - N/A   Scattered Clouds
4:50 PM 57.2 °F 50.0 °F 77% 29.97 in 10.0 mi NNE 11.5 mph - N/A   Scattered Clouds
5:50 PM 55.4 °F 50.0 °F 82% 29.97 in 10.0 mi NNE 12.7 mph - N/A   Scattered Clouds
6:50 PM 55.4 °F 50.0 °F 82% 29.98 in 10.0 mi NE 6.9 mph - N/A   Scattered Clouds
7:50 PM 53.6 °F 50.0 °F 88% 29.98 in 10.0 mi NE 5.8 mph - N/A   Clear
8:50 PM 53.6 °F 50.0 °F 88% 29.98 in 10.0 mi ENE 3.5 mph - N/A   Scattered Clouds
9:49 PM 53.6 °F 50.0 °F 88% 29.99 in 10.0 mi NE 3.5 mph - N/A   Overcast
10:17 PM 53.1 °F 50.2 °F 90% 29.99 in 10.0 mi ENE 3.5 mph - N/A Rain Light Rain
10:36 PM 53.2 °F 50.2 °F 89% 30.00 in 10.0 mi ENE 3.5 mph - N/A Rain Light Rain
10:57 PM 53.1 °F 50.4 °F 91% 30.00 in 10.0 mi NE 8.1 mph - N/A Rain Light Rain
11:17 PM 52.7 °F 50.2 °F 91% 30.00 in 10.0 mi NE 8.1 mph - N/A Rain Light Rain
11:36 PM 52.3 °F 50.0 °F 92% 29.99 in 10.0 mi NE 9.2 mph - N/A Rain Light Rain